CW7016 Weather Reports


time (UTC)temp
F
wind
direction
speed
knots
gust
knots
rain 1hr
in
rain 24hr
in
rain mn
in
humidity
%
barometer
mb
20260506211721 68 218 7.0 13.9 0.00 0.01 0.01 75 1005.8
20260506211237 68 223 6.1 13.9 0.00 0.01 0.01 75 1005.8
20260506210729 68 236 4.3 16.5 0.00 0.01 0.01 74 1005.7
20260506210240 68 169 4.3 16.5 0.00 0.01 0.01 74 1005.6
20260506205733 68 167 8.7 15.6 0.00 0.01 0.01 74 1005.5
20260506205225 68 226 2.6 12.2 0.00 0.01 0.01 75 1005.5
20260506204738 68 192 6.1 12.2 0.00 0.01 0.01 75 1005.3
20260506204245 68 195 4.3 13.0 0.00 0.01 0.01 76 1005.4
20260506203738 68 232 4.3 15.6 0.00 0.01 0.01 75 1005.4
20260506203230 68 225 7.8 15.6 0.00 0.01 0.01 75 1005.4
20260506202724 68 298 7.8 10.4 0.00 0.01 0.01 76 1005.4
20260506202240 67 315 3.5 12.2 0.00 0.01 0.01 76 1005.4
20260506201757 67 306 9.6 12.2 0.00 0.01 0.01 76 1005.4
20260506201244 67 232 4.3 12.2 0.00 0.01 0.01 77 1005.4
20260506200733 67 229 5.2 10.4 0.00 0.01 0.01 77 1005.5
20260506200221 66 194 5.2 11.3 0.00 0.01 0.01 77 1005.6
20260506195735 66 214 2.6 11.3 0.00 0.01 0.01 78 1005.7
20260506195223 66 194 6.1 11.3 0.00 0.01 0.01 78 1005.8
20260506194739 66 205 4.3 13.9 0.00 0.01 0.01 78 1005.9
20260506194230 66 182 5.2 13.9 0.00 0.01 0.01 78 1005.9
20260506193721 66 236 3.5 8.7 0.00 0.01 0.01 78 1006.0
20260506193237 66 225 4.3 9.6 0.00 0.01 0.01 78 1006.1
20260506192733 66 206 3.5 12.2 0.00 0.01 0.01 78 1006.1
20260506192221 66 203 5.2 12.2 0.00 0.01 0.01 78 1006.0
20260506191804 66 203 5.2 10.4 0.00 0.01 0.01 78 1006.1
20260506191234 66 280 5.2 16.5 0.00 0.01 0.01 77 1006.2
20260506190740 66 218 7.8 16.5 0.00 0.01 0.01 77 1006.3
20260506190231 66 203 10.4 20.0 0.00 0.01 0.01 76 1006.3
20260506185742 67 186 9.6 20.9 0.00 0.01 0.01 76 1006.3
20260506185231 67 211 9.6 21.7 0.00 0.01 0.01 75 1006.4
20260506184741 67 180 5.2 21.7 0.00 0.01 0.01 74 1006.3
20260506184232 67 227 5.2 8.7 0.00 0.01 0.01 75 1006.4
20260506183751 67 206 5.2 12.2 0.00 0.01 0.01 74 1006.3
20260506183222 67 238 7.0 16.5 0.00 0.01 0.01 74 1006.3
20260506182718 67 252 8.7 16.5 0.00 0.01 0.01 74 1006.3
20260506182235 67 175 1.7 12.2 0.00 0.01 0.01 74 1006.3
20260506181723 67 148 6.1 13.9 0.00 0.01 0.01 74 1006.4
20260506181219 67 192 8.7 18.2 0.00 0.01 0.01 74 1006.5
20260506180736 67 267 11.3 18.2 0.00 0.01 0.01 75 1006.5
20260506180243 67 210 7.0 15.6 0.00 0.01 0.01 75 1006.5
20260506175735 67 225 5.2 15.6 0.00 0.01 0.01 75 1006.6
20260506175223 67 217 6.1 17.4 0.00 0.01 0.01 75 1006.7
20260506174740 68 209 7.8 17.4 0.00 0.01 0.01 75 1006.8
20260506174233 68 229 7.8 18.2 0.00 0.01 0.01 74 1006.7
20260506173721 68 184 7.8 20.0 0.00 0.01 0.01 73 1006.7
20260506173237 68 184 14.8 20.9 0.00 0.01 0.01 73 1006.7
20260506172745 68 188 8.7 20.9 0.00 0.01 0.01 74 1006.7
20260506172239 68 198 11.3 17.4 0.00 0.01 0.01 74 1006.6
20260506171744 68 175 7.8 17.4 0.00 0.01 0.01 75 1006.5
20260506171237 68 162 7.8 15.6 0.00 0.01 0.01 76 1006.5
20260506170728 68 191 9.6 12.2 0.00 0.01 0.01 78 1006.6
20260506170305 67 200 6.1 12.2 0.01 0.01 0.01 79 1006.7
20260506165734 67 188 5.2 7.8 0.01 0.01 0.01 81 1006.7
20260506165221 66 157 5.2 7.8 0.01 0.01 0.01 82 1006.8
20260506164805 66 190 3.5 7.8 0.01 0.01 0.01 82 1007.0
20260506164302 66 148 4.3 7.8 0.01 0.01 0.01 80 1007.2
20260506163729 66 208 5.2 8.7 0.01 0.01 0.01 80 1007.4
20260506163244 66 214 5.2 8.7 0.01 0.01 0.01 80 1007.6
20260506162734 66 148 2.6 10.4 0.01 0.01 0.01 79 1007.8
20260506162224 66 205 5.2 10.4 0.01 0.01 0.01 79 1007.9
20260506161738 66 190 0.9 9.6 0.01 0.01 0.01 79 1008.0
20260506161228 66 195 3.5 9.6 0.01 0.01 0.01 78 1008.1
20260506160741 66 194 4.3 8.7 0.01 0.01 0.01 77 1008.2
20260506160235 67 194 5.2 7.8 0.00 0.00 0.00 77 1008.3
20260506155743 67 194 1.7 8.7 0.00 0.00 0.00 75 1008.3
20260506155256 67 256 4.3 9.6 0.00 0.00 0.00 75 1008.3
20260506154805 68 205 5.2 13.9 0.00 0.00 0.00 73 1008.4
20260506154252 69 189 8.7 13.9 0.00 0.00 0.00 72 1008.3
20260506153743 69 198 7.8 17.4 0.00 0.00 0.00 71 1008.1
20260506153230 70 192 7.0 17.4 0.00 0.00 0.00 68 1008.0
20260506152803 70 236 8.7 15.6 0.00 0.00 0.00 66 1008.1
20260506152230 70 223 8.7 15.6 0.00 0.00 0.00 65 1008.1
20260506151744 70 199 7.0 18.2 0.00 0.00 0.00 67 1008.1
20260506151235 70 167 13.0 18.2 0.00 0.00 0.00 67 1008.1
20260506150725 70 209 7.8 15.6 0.00 0.00 0.00 67 1008.3
20260506150242 70 240 7.8 18.2 0.00 0.00 0.00 67 1008.2
20260506145731 70 188 6.1 18.2 0.00 0.00 0.00 67 1008.2
20260506145223 70 200 6.1 17.4 0.00 0.00 0.00 66 1008.3
20260506144737 70 217 8.7 13.0 0.00 0.00 0.00 66 1008.3
20260506144227 70 170 4.3 13.9 0.00 0.00 0.00 67 1008.3
20260506143742 70 202 6.1 13.9 0.00 0.00 0.00 66 1008.3
20260506143228 70 203 7.0 16.5 0.00 0.00 0.00 66 1008.3
20260506142722 71 308 7.8 16.5 0.00 0.00 0.00 65 1008.2
20260506142241 71 157 7.8 20.0 0.00 0.00 0.00 66 1008.3
20260506141733 71 252 7.0 20.0 0.00 0.00 0.00 66 1008.3
20260506141222 70 141 3.5 11.3 0.00 0.00 0.00 67 1008.2
20260506140755 70 219 9.6 13.9 0.00 0.00 0.00 67 1008.3
20260506140222 70 184 5.2 13.9 0.00 0.00 0.00 67 1008.2
20260506135740 70 207 4.3 17.4 0.00 0.00 0.00 67 1008.3
20260506135233 70 209 4.3 17.4 0.00 0.00 0.00 67 1008.3
20260506134738 70 250 5.2 17.4 0.00 0.00 0.00 67 1008.2
20260506134252 70 203 6.1 17.4 0.00 0.00 0.00 67 1008.1
20260506133744 70 247 8.7 17.4 0.00 0.00 0.00 67 1008.2
20260506133233 70 205 7.0 13.9 0.00 0.00 0.00 67 1008.3
20260506132743 70 219 6.1 16.5 0.00 0.00 0.00 67 1008.3
20260506132233 70 215 7.8 16.5 0.00 0.00 0.00 67 1008.4
20260506131722 70 229 6.1 20.9 0.00 0.00 0.00 67 1008.4
20260506131237 70 141 10.4 20.9 0.00 0.00 0.00 67 1008.4
20260506130729 70 192 7.0 13.9 0.00 0.00 0.00 69 1008.4
20260506130243 69 200 10.4 16.5 0.00 0.00 0.00 69 1008.3
20260506125734 69 197 13.0 16.5 0.00 0.00 0.00 69 1008.4
20260506125221 69 203 7.8 15.6 0.00 0.00 0.00 70 1008.4
20260506124755 69 159 5.2 15.6 0.00 0.00 0.00 69 1008.2
20260506124244 69 230 7.8 17.4 0.00 0.00 0.00 70 1008.3
20260506123735 68 168 7.8 17.4 0.00 0.00 0.00 70 1008.2
20260506123223 68 225 6.1 13.0 0.00 0.00 0.00 71 1008.1
20260506122719 67 163 10.4 15.6 0.00 0.00 0.00 71 1008.2
20260506122236 67 194 7.0 15.6 0.00 0.00 0.00 72 1008.2
20260506121755 67 223 6.1 15.6 0.00 0.00 0.00 72 1008.4
20260506121221 66 175 8.7 15.6 0.00 0.00 0.00 72 1008.5
20260506120737 66 180 6.1 19.1 0.00 0.00 0.00 72 1008.5
20260506120233 66 256 4.3 19.1 0.00 0.00 0.00 72 1008.4
20260506115722 66 126 5.2 13.9 0.00 0.00 0.00 72 1008.5
20260506115235 66 157 3.5 13.0 0.00 0.00 0.00 73 1008.4
20260506114741 66 167 5.2 18.2 0.00 0.00 0.00 72 1008.4
20260506114232 66 211 10.4 18.2 0.00 0.00 0.00 72 1008.5
20260506113720 66 182 7.0 15.6 0.00 0.00 0.00 72 1008.6
20260506113237 66 179 3.5 13.9 0.00 0.00 0.00 73 1008.7
20260506112756 66 204 7.0 16.5 0.00 0.00 0.00 73 1008.5
20260506112222 66 203 9.6 16.5 0.00 0.00 0.00 73 1008.4
20260506111755 65 188 6.1 13.0 0.00 0.00 0.00 74 1008.5
20260506111244 65 191 7.0 11.3 0.00 0.00 0.00 75 1008.6
20260506110754 64 197 7.0 15.6 0.00 0.00 0.00 75 1008.6
20260506110222 64 180 8.7 15.6 0.00 0.00 0.00 75 1008.6
20260506105737 64 153 6.1 13.9 0.00 0.00 0.00 75 1008.6
20260506105224 64 157 6.1 13.9 0.00 0.00 0.00 76 1008.5
20260506104741 64 141 7.8 13.0 0.00 0.00 0.00 76 1008.5
20260506104232 64 231 7.8 13.0 0.00 0.00 0.00 77 1008.5
20260506103721 64 185 8.7 13.0 0.00 0.00 0.00 77 1008.4
20260506103237 63 161 4.3 12.2 0.00 0.00 0.00 77 1008.4
20260506102744 63 196 5.2 8.7 0.00 0.00 0.00 77 1008.4
20260506102238 63 133 6.1 8.7 0.00 0.00 0.00 77 1008.5
20260506101723 63 211 6.1 9.6 0.00 0.00 0.00 77 1008.5
20260506101237 63 188 6.1 9.6 0.00 0.00 0.00 77 1008.5
20260506100751 63 198 4.3 10.4 0.00 0.00 0.00 77 1008.4
20260506100239 64 198 4.3 11.3 0.00 0.00 0.00 77 1008.4
20260506095726 64 172 5.2 9.6 0.00 0.00 0.00 77 1008.4
20260506095240 64 130 5.2 8.7 0.00 0.00 0.00 77 1008.3
20260506094733 64 163 6.1 8.7 0.00 0.00 0.00 77 1008.3
20260506094222 64 160 6.1 9.6 0.00 0.00 0.00 77 1008.3
20260506093741 64 201 3.5 11.3 0.00 0.00 0.00 77 1008.3
20260506093248 64 149 6.1 11.3 0.00 0.00 0.00 77 1008.2
20260506092721 64 169 5.2 10.4 0.00 0.00 0.00 77 1008.2
20260506092238 64 215 6.1 10.4 0.00 0.00 0.00 77 1008.3
20260506091725 64 217 3.5 13.0 0.00 0.00 0.00 77 1008.2
20260506091240 64 157 5.2 13.0 0.00 0.00 0.00 77 1008.4
20260506090727 64 163 5.2 10.4 0.00 0.00 0.00 77 1008.5
20260506090221 64 169 4.3 13.9 0.00 0.00 0.00 77 1008.4
20260506085738 64 207 7.0 13.9 0.00 0.00 0.00 77 1008.4
20260506085255 64 180 7.8 12.2 0.00 0.00 0.00 76 1008.4
20260506084724 64 175 7.0 12.2 0.00 0.00 0.00 76 1008.5
20260506084243 65 142 6.1 12.2 0.00 0.00 0.00 76 1008.5
20260506083733 65 173 7.8 12.2 0.00 0.00 0.00 76 1008.6
20260506083221 65 214 5.2 11.3 0.00 0.00 0.00 76 1008.5
20260506082739 65 148 7.0 10.4 0.00 0.00 0.00 76 1008.5
20260506082230 65 184 7.0 13.0 0.00 0.00 0.00 76 1008.6
20260506081741 65 225 7.8 13.0 0.00 0.00 0.00 76 1008.6
20260506081231 65 174 7.0 15.6 0.00 0.00 0.00 75 1008.7
20260506080720 65 209 8.7 15.6 0.00 0.00 0.00 75 1008.6
20260506080239 65 207 7.0 15.6 0.00 0.00 0.00 75 1008.5
20260506073221 66 194 5.2 13.9 0.00 0.00 0.00 75 1008.6
20260506072739 66 209 4.3 13.9 0.00 0.00 0.00 75 1008.6
20260506072229 66 203 7.0 11.3 0.00 0.00 0.00 74 1008.6
20260506071720 66 225 6.1 15.6 0.00 0.00 0.00 74 1008.6
20260506071243 66 197 7.8 15.6 0.00 0.00 0.00 74 1008.7
20260506070736 66 194 4.3 12.2 0.00 0.00 0.00 74 1008.8
20260506070225 66 213 7.8 13.0 0.00 0.00 0.00 74 1008.8
20260506062243 67 164 7.8 10.4 0.00 0.00 0.00 72 1008.8
20260506061733 67 178 3.5 9.6 0.00 0.00 0.00 72 1008.8
20260506061244 67 172 7.0 11.3 0.00 0.00 0.00 72 1008.8
20260506060735 67 162 7.0 12.2 0.00 0.00 0.00 72 1008.8
20260506060228 67 193 6.1 12.2 0.00 0.00 0.00 72 1008.8
20260506051242 67 186 5.2 7.8 0.00 0.00 0.00 71 1009.3
20260506050733 68 200 6.1 8.7 0.00 0.00 0.00 70 1009.5
20260506050221 68 213 3.5 8.7 0.00 0.00 0.00 70 1009.6
20260506044720 68 200 2.6 11.3 0.00 0.00 0.00 69 1009.5
20260506044238 68 218 5.2 13.0 0.00 0.00 0.00 69 1009.6
20260506043758 68 200 7.0 13.0 0.00 0.00 0.00 69 1009.6
20260506043242 68 217 6.1 8.7 0.00 0.00 0.00 69 1009.5
20260506042752 68 202 3.5 8.7 0.00 0.00 0.00 68 1009.5
20260506042244 69 142 6.1 8.7 0.00 0.00 0.00 68 1009.5
20260506041736 69 216 2.6 9.6 0.00 0.00 0.00 68 1009.5
20260506041224 69 214 6.1 12.2 0.00 0.00 0.00 68 1009.5
20260506040740 69 186 4.3 13.0 0.00 0.00 0.00 68 1009.5
20260506040250 69 202 5.2 13.0 0.00 0.00 0.00 68 1009.4
20260506035735 69 157 5.2 13.0 0.00 0.00 0.00 68 1009.3
20260506035224 69 291 6.1 13.0 0.00 0.00 0.00 67 1009.3
20260506034742 69 159 7.8 13.0 0.00 0.00 0.00 67 1009.3
20260506034231 69 212 7.0 10.4 0.00 0.00 0.00 67 1009.4
20260506033745 69 171 2.6 12.2 0.00 0.00 0.00 66 1009.4
20260506033234 69 168 5.2 17.4 0.00 0.00 0.00 66 1009.5
20260506032724 69 181 5.2 17.4 0.00 0.00 0.00 66 1009.4
20260506032241 69 178 7.0 10.4 0.00 0.00 0.00 66 1009.4
20260506031731 70 153 7.0 10.4 0.00 0.00 0.00 65 1009.3
20260506031221 70 239 4.3 9.6 0.00 0.00 0.00 65 1009.4
20260506030739 70 137 5.2 12.2 0.00 0.00 0.00 65 1009.4
20260506030226 70 190 5.2 13.9 0.00 0.00 0.00 64 1009.3
20260506025741 70 161 3.5 13.9 0.00 0.00 0.00 64 1009.4
20260506025231 70 181 3.5 18.2 0.00 0.00 0.00 63 1009.4
20260506024744 70 200 7.0 18.2 0.00 0.00 0.00 63 1009.4
20260506024248 70 164 7.0 13.9 0.00 0.00 0.00 63 1009.4
20260506023805 70 238 5.2 13.0 0.00 0.00 0.00 62 1009.4
20260506023232 70 179 3.5 15.6 0.00 0.00 0.00 62 1009.5
20260506022743 71 189 5.2 15.6 0.00 0.00 0.00 62 1009.4
20260506022234 71 202 5.2 13.9 0.00 0.00 0.00 61 1009.3
20260506021723 71 204 4.3 13.0 0.00 0.00 0.00 61 1009.3
20260506021239 71 192 7.0 13.9 0.00 0.00 0.00 61 1009.3
20260506020758 71 182 7.0 13.9 0.00 0.00 0.00 60 1009.3
20260506020226 71 161 9.6 16.5 0.00 0.00 0.00 60 1009.3
20260506015742 71 196 7.0 16.5 0.00 0.00 0.00 60 1009.3
20260506015233 71 181 7.8 13.9 0.00 0.00 0.00 60 1009.3
20260506014722 71 198 7.8 13.9 0.00 0.00 0.00 60 1009.2
20260506014237 72 165 9.6 11.3 0.00 0.00 0.00 60 1009.1
20260506013724 72 159 7.0 11.3 0.00 0.00 0.00 60 1009.1
20260506013239 72 144 4.3 15.6 0.00 0.00 0.00 60 1009.0
20260506012726 72 165 7.8 15.6 0.00 0.00 0.00 59 1009.0
20260506012242 72 209 4.3 10.4 0.00 0.00 0.00 59 1009.0
20260506011734 72 132 6.1 10.4 0.00 0.00 0.00 59 1009.0
20260506011242 73 182 6.1 9.6 0.00 0.00 0.00 59 1008.8
20260506010753 73 203 4.3 19.1 0.00 0.00 0.00 58 1008.8
20260506010245 73 199 4.3 19.1 0.00 0.00 0.00 58 1008.8
20260506005736 73 209 7.0 13.9 0.00 0.00 0.00 57 1008.7
20260506005245 74 206 7.0 11.3 0.00 0.00 0.00 56 1008.7
20260506004736 74 201 3.5 12.2 0.00 0.00 0.00 55 1008.6
20260506004224 74 205 5.2 12.2 0.00 0.00 0.00 54 1008.6
20260506003803 74 196 4.3 11.3 0.00 0.00 0.00 54 1008.5
20260506003259 75 148 6.1 13.0 0.00 0.00 0.00 53 1008.4
20260506002725 75 189 5.2 20.9 0.00 0.00 0.00 52 1008.4
20260506002242 75 157 5.2 20.9 0.00 0.00 0.00 51 1008.3
20260506001737 76 180 4.3 12.2 0.00 0.00 0.00 50 1008.3
20260506001225 76 175 5.2 12.2 0.00 0.00 0.00 48 1008.2
20260506000741 77 176 5.2 13.0 0.00 0.00 0.00 47 1008.1
20260506000235 77 159 7.8 11.3 0.00 0.00 0.00 46 1008.1
20260505235724 77 207 5.2 15.6 0.00 0.00 0.00 46 1008.0
20260505235218 78 189 6.1 15.6 0.00 0.00 0.00 45 1008.0
20260505234736 78 171 8.7 13.9 0.00 0.00 0.00 44 1007.9
20260505234224 78 174 9.6 13.9 0.00 0.00 0.00 44 1007.8
20260505233741 78 167 7.8 13.0 0.00 0.00 0.00 44 1007.8
20260505233233 79 202 5.2 11.3 0.00 0.00 0.00 44 1007.8
20260505232722 79 205 7.0 13.9 0.00 0.00 0.00 43 1007.7
20260505232240 79 222 5.2 16.5 0.00 0.00 0.00 43 1007.6
20260505231758 80 197 7.8 16.5 0.00 0.00 0.00 43 1007.6
20260505231225 80 195 6.1 12.2 0.00 0.00 0.00 42 1007.5
20260505230803 81 202 7.8 17.4 0.00 0.00 0.00 42 1007.6
20260505230227 81 327 7.0 18.2 0.00 0.00 0.00 41 1007.4
20260505225803 81 187 9.6 18.2 0.00 0.00 0.00 40 1007.3
20260505225232 82 193 9.6 22.6 0.00 0.00 0.00 40 1007.4
20260505224743 82 187 5.2 22.6 0.00 0.00 0.00 40 1007.4
20260505224252 82 240 12.2 20.0 0.00 0.00 0.00 39 1007.3
20260505223721 82 213 9.6 20.0 0.00 0.00 0.00 38 1007.1
20260505223240 82 198 9.6 20.9 0.00 0.00 0.00 38 1007.2
20260505222748 83 186 10.4 20.9 0.00 0.00 0.00 37 1007.0
20260505222220 83 187 7.0 13.0 0.00 0.00 0.00 37 1007.1
20260505221736 83 157 6.1 13.0 0.00 0.00 0.00 36 1007.0
20260505221242 84 189 4.3 15.6 0.00 0.00 0.00 34 1007.1
20260505220759 84 242 7.0 18.2 0.00 0.00 0.00 34 1006.8
20260505220255 84 203 8.7 22.6 0.00 0.00 0.00 34 1006.7
20260505215742 84 297 4.3 20.9 0.00 0.00 0.00 34 1006.9
20260505215230 84 249 9.6 20.9 0.00 0.00 0.00 32 1006.9
20260505214745 84 159 7.0 20.0 0.00 0.00 0.00 33 1006.9
20260505214240 84 178 8.7 20.0 0.00 0.00 0.00 32 1006.9
20260505213724 85 197 7.8 17.4 0.00 0.00 0.00 33 1006.9
20260505213237 85 225 4.3 16.5 0.00 0.00 0.00 32 1006.9
20260505212730 85 208 7.0 19.1 0.00 0.00 0.00 32 1006.9
20260505212242 85 198 6.1 23.5 0.00 0.00 0.00 32 1006.7